This is the latest recevied weather packets stored in our database for station/object K8RRT. If no packets are shown the sender has not sent any weather packets the latest 1 day(s).
| Time | Temp. | Humidity | Pressure | Rain* | Wind** | Luminosity | Snow |
|---|---|---|---|---|---|---|---|
| 1778055694 | 14.44° C | 99% | 1002.4 hPa | 3.05 mm | - | 0 W/m² | - |
| 1778055090 | 14.44° C | 99% | 1002.4 hPa | 4.32 mm | - | 0 W/m² | - |
| 1778054484 | 14.44° C | 99% | 1002.7 hPa | 13.72 mm | - | 0 W/m² | - |
| 1778053878 | 14.44° C | 99% | 1002.9 hPa | 0 mm | - | 0 W/m² | - |
| 1778053576 | 14.44° C | 99% | 1002.8 hPa | 4.83 mm | - | 0 W/m² | - |
| 1778053273 | 14.44° C | 99% | 1002.5 hPa | 8.89 mm | - | 0 W/m² | - |
| 1778052668 | 14.44° C | 99% | 1002.5 hPa | 0 mm | - | 0 W/m² | - |
| 1778052364 | 14.44° C | 99% | 1002.6 hPa | 0 mm | - | 0 W/m² | - |
| 1778051457 | 14.44° C | 99% | 1002.8 hPa | 1.78 mm | - | 0 W/m² | - |
| 1778051154 | 14.44° C | 99% | 1002.8 hPa | 1.27 mm | - | 0 W/m² | - |
| 1778050851 | 14.44° C | 99% | 1003.2 hPa | 7.87 mm | - | 0 W/m² | - |
| 1778050549 | 14.44° C | 99% | 1003.4 hPa | 7.87 mm | - | 0 W/m² | - |
| 1778049638 | 14.44° C | 99% | 1003.4 hPa | 1.27 mm | - | 0 W/m² | - |
| 1778048124 | 14.44° C | 99% | 1004 hPa | 0 mm | - | 0 W/m² | - |
| 1778047822 | 15° C | 99% | 1003.9 hPa | 1.78 mm | - | 0 W/m² | - |
| 1778047217 | 14.44° C | 99% | 1003.9 hPa | 1.27 mm | - | 0 W/m² | - |
| 1778046914 | 14.44° C | 99% | 1003.9 hPa | 4.83 mm | - | 0 W/m² | - |
| 1778046308 | 15° C | 99% | 1003.9 hPa | 1.27 mm | - | 0 W/m² | - |
| 1778045702 | 15° C | 99% | 1003.8 hPa | 0 mm | - | 0 W/m² | - |
| 1778045400 | 15° C | 99% | 1003.9 hPa | 0 mm | - | 0 W/m² | - |
| 1778045098 | 15° C | 99% | 1003.8 hPa | 0 mm | - | 0 W/m² | - |
| 1778044795 | 15° C | 98% | 1003.9 hPa | 0 mm | - | 0 W/m² | - |
| 1778044189 | 15° C | 98% | 1003.8 hPa | 0 mm | - | 0 W/m² | - |
| 1778043584 | 15° C | 97% | 1003.6 hPa | 0 mm | - | 0 W/m² | - |
| 1778042977 | 15° C | 97% | 1003.5 hPa | 3.05 mm | - | 0 W/m² | - |
* Rain latest hour (hover to see other rain measurements)
** Current wind speed in m/s (hover to see current wind gust speed)